This demonstration page uses our WeatherBlox Daily Observations layout. Learn more.

Left ArrowRight Arrow

Hourly Observations for September 26, 2018

Temp ( °F °C ) Dew Point ( °F °C ) Humidity (%) Winds ( mph kmh ) Pressure ( in mb ) Visibility ( mi km ) Precip ( " mm )
12:53 am 00:53 Partly Cloudy 58 14.4 49 9.4 72 72 NNE 8 13 30.19 1022 10 16 0.00 0.00
1:53 am 01:53 Partly Cloudy 56 13.3 49 9.4 77 77 NNE 7 11 30.21 1023 10 16 0.00 0.00
2:53 am 02:53 Partly Cloudy 56 13.3 48 8.9 75 75 N 9 15 30.21 1023 10 16 0.00 0.00
3:53 am 03:53 Partly Cloudy 53 11.7 48 8.9 83 83 N 5 7 30.19 1022 10 16 0.00 0.00
4:53 am 04:53 Partly Cloudy 50 10 47 8.3 89 89 NNW 5 7 30.21 1023 10 16 0.00 0.00
5:53 am 05:53 Partly Cloudy 50 10 48 8.9 93 93 N 6 9 30.24 1024 10 16 0.00 0.00
6:53 am 06:53 Mostly Cloudy 53 11.7 48 8.9 83 83 N 7 11 30.24 1024 10 16 0.00 0.00
7:53 am 07:53 Cloudy 50 10 48 8.9 93 93 W 3 6 30.30 1026 10 16 0.00 0.00
8:53 am 08:53 Cloudy 53 11.7 50 10 89 89 NW 6 9 30.31 1026 10 16 0.00 0.00
9:53 am 09:53 Mostly Cloudy 56 13.3 50 10 81 81 NE 6 9 30.31 1027 10 16 0.00 0.00
10:53 am 10:53 Mostly Cloudy 57 13.9 50 10 78 78 N 3 6 30.32 1027 10 16 0.00 0.00
11:53 am 11:53 Mostly Cloudy 63 17.2 49 9.4 60 60 N 6 9 30.32 1027 10 16 0.00 0.00
12:53 pm 12:53 Mostly Cloudy 66 18.9 47 8.3 50 50 NE 7 11 30.29 1026 10 16 0.00 0.00
1:53 pm 13:53 Partly Cloudy 68 20 46 7.8 45 45 NE 6 9 30.25 1024 10 16 0.00 0.00
2:53 pm 14:53 Partly Cloudy 70 21.1 42 5.6 37 37 ENE 3 6 30.21 1023 10 16 0.00 0.00
3:53 pm 15:53 Mostly Sunny 71 21.7 42 5.6 35 35 E 10 17 30.18 1022 10 16 0.00 0.00
4:53 pm 16:53 Mostly Sunny 72 22.2 39 3.9 30 30 NE 3 6 30.16 1021 10 16 0.00 0.00
5:53 pm 17:53 Partly Cloudy 70 21.1 40 4.4 34 34 NE 9 15 30.15 1021 10 16 0.00 0.00
6:53 pm 18:53 Mostly Cloudy 66 18.9 41 5 40 40 E 5 7 30.14 1021 10 16 0.00 0.00
7:53 pm 19:53 Mostly Cloudy 62 16.7 42 5.6 48 48 ESE 6 9 30.15 1021 10 16 0.00 0.00
8:53 pm 20:53 Mostly Cloudy 56 13.3 46 7.8 70 70 S 3 6 30.17 1022 10 16 0.00 0.00
9:53 pm 21:53 Partly Cloudy 54 12.2 46 7.8 75 75 SSE 6 9 30.18 1022 10 16 0.00 0.00
10:53 pm 22:53 Partly Cloudy 53 11.7 44 6.7 72 72 SSE 7 11 30.18 1022 10 16 0.00 0.00
11:53 pm 23:53 Partly Cloudy 51 10.6 43 6.1 74 74 SSE 7 11 30.18 1022 10 16 0.00 0.00

Powered by Vaisala Xweather